Tracking 20376 objects as of 20-Feb-2020
HD Live streaming from Space Station
objects crossing your sky now
Track the group of recently launched Starlink satellites

TRANSIT 4B

Track TRANSIT 4B now!
10-day predictions
TRANSIT 4B is classified as:


NORAD ID: 202
Int'l Code: 1961-031A
Perigee: 955.1 km
Apogee: 1,104.9 km
Inclination: 32.4 °
Period: 105.6 minutes
Semi major axis: 7401 km
RCS: 2.1391 m2 (large)
Launch date: November 15, 1961
Source: United States (US)
Launch site: AIR FORCE EASTERN TEST RANGE (AFETR)
aabbcc
Your satellite tracking list
Your tracking list is empty




NASA's NSSDC Master Catalog

Two Line Element Set (TLE):
1   202U 61031A   20051.16995823  .00000024  00000-0  25676-5 0  9993
2   202  32.4396  44.7320 0101206 319.5057  39.8068 13.63532831905714
Source of the keplerian elements: AFSPC